This demonstration page uses our WeatherBlox Daily Observations layout. Learn more.

38.89511, -77.03637

Hourly Observations for February 21, 2020

Temp ( °F °C ) Dew Point ( °F °C ) Humidity (%) Winds ( mph kmh ) Pressure ( in mb ) Visibility ( mi km ) Precip ( " mm )
12:52 am 00:52 Windy with Snow Likely 33 0.6 17 -8.3 52 52 NNE 21 33 30.46 1032 9 14.48406 0.001 0.001
1:52 am 01:52 Mostly Cloudy 31 -0.6 15 -9.4 52 52 N 21 33 30.46 1032 10 16.0934 0.001 0.001
2:52 am 02:52 Mostly Clear 29 -1.7 12 -11.1 49 49 N 15 24 30.46 1032 10 16.0934 0 0
3:52 am 03:52 Mostly Clear 28 -2.2 11 -11.7 49 49 N 21 33 30.46 1032 10 16.0934 0 0
4:52 am 04:52 Mostly Clear 27 -2.8 10 -12.2 49 49 NNW 18 30 30.49 1032 10 16.0934 0 0
5:52 am 05:52 Mostly Clear 25 -3.9 9 -12.8 50 50 N 21 33 30.51 1033 10 16.0934 0 0
6:52 am 06:52 Mostly Sunny 24 -4.4 8 -13.3 50 50 N 17 28 30.53 1034 10 16.0934 0 0
7:52 am 07:52 Sunny 25 -3.9 8 -13.3 48 48 N 17 28 30.56 1035 10 16.0934 0 0
8:52 am 08:52 Sunny 28 -2.2 8 -13.3 43 43 N 17 28 30.58 1035 10 16.0934 0 0
9:52 am 09:52 Sunny 29 -1.7 8 -13.3 41 41 N 13 20 30.58 1035 10 16.0934 0 0
10:52 am 10:52 Sunny 32 0 10 -12.2 40 40 N 8 13 30.58 1036 10 16.0934 0 0
11:52 am 11:52 Sunny 33 0.6 9 -12.8 36 36 N 12 19 30.57 1035 10 16.0934 0 0
12:52 pm 12:52 Sunny 36 2.2 10 -12.2 34 34 NW 10 17 30.55 1034 10 16.0934 0 0
1:52 pm 13:52 Sunny 37 2.8 9 -12.8 31 31 Calm 30.53 1034 10 16.0934 0 0
2:52 pm 14:52 Sunny 38 3.3 8 -13.3 29 29 NNE 9 15 30.51 1033 10 16.0934 0 0
3:52 pm 15:52 Sunny 39 3.9 9 -12.8 29 29 NNW 8 13 30.5 1033 10 16.0934 0 0
4:52 pm 16:52 Sunny 38 3.3 7 -13.9 27 27 NNW 8 13 30.48 1032 10 16.0934 0 0
5:52 pm 17:52 Clear 36 2.2 6 -14.4 28 28 NW 9 15 30.48 1032 10 16.0934 0 0
6:52 pm 18:52 Clear 35 1.7 6 -14.4 29 29 NW 6 9 30.49 1032 10 16.0934 0 0
7:52 pm 19:52 Clear 36 2.2 6 -14.4 28 28 W 3 6 30.48 1032 10 16.0934 0 0
8:52 pm 20:52 Clear 34 1.1 8 -13.3 34 34 SW 5 7 30.47 1032 10 16.0934 0 0
9:52 pm 21:52 Clear 32 0 10 -12.2 40 40 SW 5 7 30.46 1032 10 16.0934 0 0
10:52 pm 22:52 Clear 31 -0.6 11 -11.7 43 43 WSW 7 11 30.45 1031 10 16.0934 0 0
11:52 pm 23:52 Clear 32 0 10 -12.2 40 40 WSW 9 15 30.44 1031 10 16.0934 0 0

Powered by AerisWeather